This demonstration page uses our WeatherBlox Daily Observations layout. Learn more.

Left ArrowRight Arrow

36.17497, -115.13722

Hourly Observations for August 5, 2019

Temp ( °F °C ) Dew Point ( °F °C ) Humidity (%) Winds ( mph kmh ) Pressure ( in mb ) Visibility ( mi km ) Precip ( " mm )
12:53 am 00:53 Clear 93 33.9 36 2.2 13 13 NNE 7 11 29.82 1010 10 16 0.00 0.00
1:53 am 01:53 Clear 91 32.8 37 2.8 15 15 NW 8 13 29.82 1010 10 16 0.00 0.00
2:53 am 02:53 Clear 87 30.6 36 2.2 16 16 Calm 29.84 1010 10 16 0.00 0.00
3:53 am 03:53 Clear 85 29.4 38 3.3 19 19 Calm 29.84 1011 10 16 0.00 0.00
4:53 am 04:53 Clear 83 28.3 40 4.4 22 22 W 3 6 29.85 1011 10 16 0.00 0.00
5:53 am 05:53 Sunny 84 28.9 39 3.9 20 20 Calm 29.87 1012 10 16 0.00 0.00
6:53 am 06:53 Sunny 84 28.9 41 5 22 22 NW 5 7 29.89 1012 10 16 0.00 0.00
7:53 am 07:53 Sunny 90 32.2 40 4.4 17 17 NNE 3 6 29.90 1012 10 16 0.00 0.00
8:53 am 08:53 Sunny 94 34.4 38 3.3 14 14 Calm 29.91 1013 10 16 0.00 0.00
9:53 am 09:53 Sunny 96 35.6 38 3.3 13 13 Calm 29.91 1013 10 16 0.00 0.00
10:53 am 10:53 Sunny 100 37.8 36 2.2 11 11 SE 5 7 29.91 1013 10 16 0.00 0.00
11:53 am 11:53 Sunny 104 40 36 2.2 9 9 E 5 7 29.88 1012 10 16 0.00 0.00
12:53 pm 12:53 Sunny 107 41.7 35 1.7 8 8 SSE 8 13 29.86 1011 10 16 0.00 0.00
1:53 pm 13:53 Sunny 109 42.8 33 0.6 7 7 WSW 7 11 29.83 1010 10 16 0.00 0.00
2:53 pm 14:53 Sunny 110 43.3 32 0 7 7 SW 14 22 29.80 1009 10 16 0.00 0.00
3:53 pm 15:53 Sunny 108 42.2 32 0 7 7 undefined N/A 29.78 1008 10 16 0.00 0.00
4:53 pm 16:53 Sunny 110 43.3 31 -0.6 6 6 WSW 14 22 29.76 1008 10 16 0.00 0.00
5:39 pm 17:39 Sunny 109 42.8 31 -0.6 7 7 W 10 17 29.56 1001 10 16 0.00 0.00
5:53 pm 17:53 Sunny 109 42.8 30 -1.1 6 6 W 12 19 29.75 1008 10 16 0.00 0.00
6:53 pm 18:53 Sunny 106 41.1 31 -0.6 7 7 W 13 20 29.76 1008 10 16 0.00 0.00
7:53 pm 19:53 Clear 105 40.6 31 -0.6 7 7 W 10 17 29.77 1008 10 16 0.00 0.00
8:53 pm 20:53 Clear 103 39.4 32 0 8 8 WSW 3 6 29.78 1009 10 16 0.00 0.00
9:53 pm 21:53 Clear 100 37.8 33 0.6 10 10 SSW 8 13 29.80 1009 10 16 0.00 0.00
10:53 pm 22:53 Clear 97 36.1 35 1.7 11 11 SW 5 7 29.79 1009 10 16 0.00 0.00
11:53 pm 23:53 Clear 93 33.9 35 1.7 13 13 N 3 6 29.80 1009 10 16 0.00 0.00

Powered by AerisWeather